This is the latest recevied weather packets stored in our database for station/object AC5CM. If no packets are shown the sender has not sent any weather packets the latest 10 day(s).
| Time | Temp. | Humidity | Pressure | Rain* | Wind** | Luminosity | Snow |
|---|---|---|---|---|---|---|---|
| 1777778431 | 15° C | 77% | 1021 hPa | 0 mm | - | - | - |
| 1777778129 | 15° C | 76% | 1020.9 hPa | 0 mm | - | - | - |
| 1777777826 | 15.56° C | 75% | 1020.5 hPa | 0 mm | - | - | - |
| 1777777522 | 15.56° C | 73% | 1020.9 hPa | 0 mm | - | - | - |
| 1777777219 | 15.56° C | 73% | 1020.8 hPa | 0 mm | - | - | - |
| 1777776915 | 16.11° C | 72% | 1020.7 hPa | 0 mm | - | - | - |
| 1777776614 | 16.11° C | 71% | 1020.7 hPa | 0 mm | - | - | - |
| 1777776309 | 16.11° C | 71% | 1020.9 hPa | 0 mm | - | - | - |
| 1777776007 | 16.11° C | 71% | 1020.7 hPa | 0 mm | - | - | - |
| 1777775703 | 16.67° C | 70% | 1020.8 hPa | 0 mm | - | - | - |
| 1777775400 | 16.67° C | 70% | 1020.8 hPa | 0 mm | - | - | - |
| 1777775096 | 16.67° C | 67% | 1020.8 hPa | 0 mm | - | - | - |
| 1777774791 | 16.67° C | 65% | 1020.7 hPa | 0 mm | - | - | - |
| 1777774488 | 16.67° C | 64% | 1020.3 hPa | 0 mm | - | - | - |
| 1777774186 | 17.22° C | 62% | 1020.5 hPa | 0 mm | - | - | - |
| 1777773883 | 17.78° C | 61% | 1020.4 hPa | 0 mm | - | - | - |
| 1777773579 | 17.78° C | 60% | 1020.4 hPa | 0 mm | - | - | - |
| 1777773276 | 18.33° C | 57% | 1020.4 hPa | 0 mm | - | - | - |
| 1777772972 | 18.89° C | 56% | 1020.5 hPa | 0 mm | - | - | - |
| 1777772669 | 18.89° C | 55% | 1020.4 hPa | 0 mm | - | - | - |
| 1777772368 | 19.44° C | 53% | 1020.2 hPa | 0 mm | - | - | - |
| 1777772064 | 19.44° C | 52% | 1020.3 hPa | 0 mm | - | - | - |
| 1777771761 | 19.44° C | 52% | 1020.1 hPa | 0 mm | - | - | - |
| 1777771460 | 19.44° C | 51% | 1020 hPa | 0 mm | - | - | - |
| 1777771155 | 20° C | 50% | 1020 hPa | 0 mm | - | - | - |
* Rain latest hour (hover to see other rain measurements)
** Current wind speed in m/s (hover to see current wind gust speed)